{"data":{"norad_id":81366,"epoch":"2026-09-12T02:21:54.258624Z","epoch_age_seconds":740403,"freshness":"AGED","line1":"1 81366U          26255.09854466  .00000400  00000+0  16238-3 0  9992","line2":"2 81366  65.8817 144.6471 0723655 309.6287  44.2995 13.45748160102736","mean_motion":13.4574816,"eccentricity":0.0723655,"inclination_deg":65.8817,"raan_deg":144.6471,"arg_perigee_deg":309.6287,"mean_anomaly_deg":44.2995,"bstar":0.00016238,"rev_number":10273,"period_min":107.00367593295,"perigee_km":547.65647908132,"apogee_km":1628.2297178094,"semimajor_km":7466.0800984454,"source":"CELESTRAK","updated_at":"2026-09-20T09:00:32.386678Z"}}